Regional Weather Roundup
Issued by NWS Green Bay, WI

Current Version |  Previous Version |  Text Only |  Print | Product List |  Glossary On
Versions: 1 2 3 4 5 6 7 8 9 10 11 12 13 14 15 16 17 18 19 20 21 22 23 24 25 26 27 28 29 30 31 32 33 34 35 36 37 38 39 40 41 42 43 44 45 46 47 48 49 50
646
ASUS43 KGRB 241259
RWRGRB

NORTH-CENTRAL AND NORTHEAST WISCONSIN REGIONAL WEATHER ROUNDUP
NATIONAL WEATHER SERVICE GREEN BAY WI
800 AM CDT MON JUN 24 2024

WIZ005-009-010>012-018-019-241400-
NORTH CENTRAL WISCONSIN

CITY           SKY/WX    TMP DP  RH WIND       PRES   REMARKS
IRONWOOD       MOSUNNY   63  55  75 S6        29.94S
MANITOWISH WTR NOT AVBL
ARBOR VITAE    NOT AVBL
EAGLE RIVER    NOT AVBL
LAND O LAKES   NOT AVBL
RHINELANDER    MOSUNNY   62  54  74 S6        29.98S
PHILLIPS       NOT AVBL
ANTIGO         NOT AVBL
TOMAHAWK       NOT AVBL
MERRILL        NOT AVBL
$$

WIZ013-073-241400-
NORTHEAST WISCONSIN

CITY           SKY/WX    TMP DP  RH WIND       PRES   REMARKS
IRON MOUNTAIN  SUNNY     63  57  81 CALM      29.96R
MARINETTE      NOT AVBL
$$

WIZ017-030-035>037-045-241400-
CENTRAL WISCONSIN

CITY           SKY/WX    TMP DP  RH WIND       PRES   REMARKS
MEDFORD        NOT AVBL
WAUSAU         SUNNY     63  57  81 SE3       29.96R
MOSINEE        SUNNY     61  57  88 SE5       29.97R
MARSHFIELD     SUNNY     64  60  87 SE5       29.95S
WISC RAPIDS    SUNNY     66  59  78 CALM      29.97R
STEVENS POINT  NOT AVBL
WAUPACA        NOT AVBL
SHAWANO        NOT AVBL
CLINTONVILLE   NOT AVBL
WAUTOMA        SUNNY     64  63  96 CALM      29.97R
$$

WIZ038-039-048-051-241400-
FOX VALLEY

CITY           SKY/WX    TMP DP  RH WIND       PRES   REMARKS
NWS GREEN BAY  SUNNY     67  59  75 CALM      29.98R
APPLETON       SUNNY     68  57  68 CALM      29.98R
OSHKOSH        SUNNY     68  58  70 SE3       29.97R
FOND DU LAC    SUNNY     66  57  72 SE3       29.97S
$$

WIZ022-050-052-241400-
EAST CENTRAL WISCONSIN

CITY           SKY/WX    TMP DP  RH WIND       PRES   REMARKS
EPHRAIM        NOT AVBL
WASHINGTON ISL NOT AVBL
STURGEON BAY   SUNNY     64  57  78 CALM      29.99R
MANITOWOC      SUNNY     64  57  78 E6        29.99S
SHEBOYGAN      SUNNY     64  56  75 E6        29.98R
$$

LMZ563-521-522-541>543-241400-
LAKESHORE

STATION/POSITION TIME  TEMP    WIND        PRES    VSBY  WAVE
                       AIR SEA DIR/SP/G                  HT/PER
                 (UTC) (F)     (DEG/KT/KT) (MB)    (MI)  (FT/S)
SHEBOYGAN LKSHOR 1200   62      30/  6/  6 1014.5R
KEWAUNEE LKSHORE 1206   66      50/  1/  3 1013.7
NORTHPORT PIER   1200   65     290/  4/  5 1015.2
N MID LAKE BUOY  1240   59 58  330/  4/  4 1015.1R
CHAMBERS ISLAND  1230   70     320/  3/  3   N/A
GREEN BAY WEST   1206   68      90/  3/  3 1013.4
MENOMINEE LKSHOR 1206   60 71   10/  5/  5 1013.2
$$